Погода в Умм-эль-Кайвайне

Объединённые Арабские Эмираты     25°33′11″N   55°33′03″E
темп.,
°C
ветер,
м/с
пор.,
м/с
влажн.,
%
обл.,
%
осадки,
мм/ч
давл.,
гПа
погр.,
м
24 января, пн
пн2401:00+19зсз33510 0.0 1017811
04:00+19сз33490 0.0 1016777
07:00+18сз22460 0.0 1017742
10:00+20зсз12424 0.0 10191008
13:00+20зсз33430 0.0 1017892
16:00+20зсз34450 0.0 1016821
19:00+20зсз33460 0.0 1017771
22:00+20з23480 0.0 1017560
25 января, вт
вт2501:00+20з23500 0.0 1016577
04:00+20зсз23520 0.0 1016599
07:00+20зсз23560 0.0 1017628
10:00+21з23540 0.0 1018785
13:00+22зсз44540 0.0 1016831
16:00+22зсз33500 0.0 1015597
19:00+22ссз22520 0.0 1016401
22:00+21ссв22580 0.0 1017283
26 января, ср
ср2601:00+20ссв22560 0.0 1017274
04:00+20св22540 0.0 1016326
07:00+20всв22540 0.0 1017269
10:00+21всв22500 0.0 1018305
13:00+22ссв33420 0.0 1016522
16:00+22с43410 0.0 1014453
19:00+22с34440 0.0 1015302
22:00+21ссв22460 0.0 1016220
27 января, чт
чт2701:00+21св22460 0.0 1015173
04:00+21св33500 0.0 1015230
07:00+20юв33580 0.0 1016131
10:00+21юв23500 0.0 1017221
13:00+23з22420 0.0 1016404
16:00+22зсз43490 0.0 1014277
19:00+22сз22560 0.0 1016218
22:00+22сз23570 0.0 1017174
28 января, пт
пт2801:00+21сз22620 0.0 1016237
04:00+21сз23631 0.0 1016341
07:00+21сз34630 0.0 1017494
10:00+22з33630 0.0 1019695
13:00+22з66690 0.0 1017750
16:00+21з77630 0.0 1016805
19:00+21з67550 0.0 1017783
22:00+21з67550 0.0 1019709